| time (UTC) | temp F | wind direction | speed MPH | gust MPH | rain 1hr in | rain 24hr in | rain mn in | humidity % | barometer mb |
| 20260906220552 | 77 | 153 | 3.0 | 3.0 | 0.00 | 0.88 | 0.88 | 65 | 1016.5 |
| 20260906220048 | 78 | 147 | 3.0 | 4.0 | 0.00 | 0.88 | 0.88 | 63 | 1016.5 |
| 20260906215546 | 78 | 96 | 2.0 | 3.0 | 0.00 | 0.88 | 0.88 | 63 | 1016.5 |
| 20260906215044 | 77 | 96 | 0.0 | 2.0 | 0.00 | 0.88 | 0.88 | 63 | 1016.5 |
| 20260906214544 | 77 | 96 | 1.0 | 3.0 | 0.00 | 0.88 | 0.88 | 63 | 1016.5 |
| 20260906214039 | 77 | 96 | 1.0 | 3.0 | 0.00 | 0.88 | 0.88 | 62 | 1016.5 |
| 20260906213538 | 77 | 96 | 2.0 | 4.0 | 0.00 | 0.88 | 0.88 | 62 | 1016.5 |
| 20260906213033 | 77 | 96 | 3.0 | 4.0 | 0.00 | 0.88 | 0.88 | 62 | 1016.5 |
| 20260906212526 | 77 | 96 | 2.0 | 3.0 | 0.00 | 0.88 | 0.88 | 60 | 1016.5 |
| 20260906212022 | 77 | 96 | 1.0 | 2.0 | 0.00 | 0.88 | 0.88 | 61 | 1016.5 |
| 20260906211516 | 77 | 96 | 2.0 | 4.0 | 0.00 | 0.88 | 0.88 | 60 | 1016.5 |
| 20260906211011 | 78 | 96 | 3.0 | 4.0 | 0.00 | 0.88 | 0.88 | 61 | 1016.5 |
| 20260906210507 | 78 | 96 | 3.0 | 4.0 | 0.00 | 0.88 | 0.88 | 62 | 1016.5 |
| 20260906210006 | 78 | 133 | 3.0 | 6.0 | 0.00 | 0.88 | 0.88 | 63 | 1016.5 |
| 20260906205502 | 78 | 151 | 1.0 | 4.0 | 0.00 | 0.88 | 0.88 | 63 | 1016.5 |
| 20260906204958 | 77 | 77 | 2.0 | 3.0 | 0.00 | 0.88 | 0.88 | 64 | 1016.5 |
| 20260906204457 | 77 | 151 | 1.0 | 3.0 | 0.00 | 0.88 | 0.88 | 67 | 1016.5 |
| 20260906203956 | 77 | 151 | 4.0 | 5.0 | 0.00 | 0.88 | 0.88 | 65 | 1016.5 |
| 20260906203446 | 77 | 151 | 4.0 | 6.0 | 0.00 | 0.88 | 0.88 | 64 | 1016.5 |
| 20260906202943 | 78 | 119 | 4.0 | 6.0 | 0.00 | 0.88 | 0.88 | 63 | 1016.5 |
| 20260906202437 | 78 | 120 | 2.0 | 4.0 | 0.00 | 0.88 | 0.88 | 62 | 1016.5 |
| 20260906201931 | 78 | 122 | 3.0 | 5.0 | 0.00 | 0.88 | 0.88 | 63 | 1016.5 |
| 20260906201425 | 79 | 137 | 4.0 | 6.0 | 0.00 | 0.88 | 0.88 | 61 | 1016.5 |
| 20260906200920 | 79 | 111 | 5.0 | 6.0 | 0.00 | 0.88 | 0.88 | 60 | 1016.1 |
| 20260906200412 | 80 | 97 | 6.0 | 9.0 | 0.00 | 0.88 | 0.88 | 58 | 1016.1 |
| 20260906195911 | 80 | 126 | 5.0 | 9.0 | 0.00 | 0.88 | 0.88 | 57 | 1016.1 |
| 20260906195408 | 80 | 145 | 5.0 | 7.0 | 0.00 | 0.88 | 0.88 | 58 | 1016.1 |
| 20260906194903 | 78 | 94 | 4.0 | 7.0 | 0.00 | 0.88 | 0.88 | 59 | 1016.5 |
| 20260906194353 | 78 | 90 | 3.0 | 4.0 | 0.00 | 0.88 | 0.88 | 60 | 1016.5 |
| 20260906193848 | 78 | 101 | 4.0 | 6.0 | 0.00 | 0.88 | 0.88 | 60 | 1016.5 |
| 20260906193344 | 78 | 142 | 2.0 | 4.0 | 0.00 | 0.88 | 0.88 | 60 | 1016.5 |
| 20260906192839 | 80 | 109 | 4.0 | 6.0 | 0.00 | 0.88 | 0.88 | 57 | 1016.5 |
| 20260906192338 | 81 | 77 | 5.0 | 6.0 | 0.00 | 0.88 | 0.88 | 55 | 1016.5 |
| 20260906191833 | 80 | 66 | 1.0 | 2.0 | 0.00 | 0.88 | 0.88 | 57 | 1016.1 |
| 20260906191332 | 79 | 66 | 0.0 | 1.0 | 0.00 | 0.88 | 0.88 | 59 | 1016.5 |
| 20260906190827 | 79 | 99 | 4.0 | 6.0 | 0.00 | 0.88 | 0.88 | 60 | 1016.5 |
| 20260906190326 | 79 | 75 | 2.0 | 5.0 | 0.00 | 0.88 | 0.88 | 63 | 1016.5 |
| 20260906185826 | 78 | 137 | 4.0 | 6.0 | 0.00 | 0.88 | 0.88 | 62 | 1016.8 |
| 20260906185325 | 79 | 124 | 3.0 | 5.0 | 0.00 | 0.88 | 0.88 | 63 | 1016.5 |
| 20260906184820 | 78 | 88 | 2.0 | 4.0 | 0.00 | 0.88 | 0.88 | 62 | 1016.8 |
| 20260906184315 | 78 | 65 | 0.0 | 2.0 | 0.00 | 0.88 | 0.88 | 62 | 1016.8 |
| 20260906183811 | 78 | 65 | 2.0 | 3.0 | 0.00 | 0.88 | 0.88 | 59 | 1017.2 |
| 20260906183307 | 78 | 65 | 3.0 | 4.0 | 0.00 | 0.88 | 0.88 | 62 | 1017.2 |
| 20260906182807 | 78 | 65 | 2.0 | 4.0 | 0.00 | 0.88 | 0.88 | 63 | 1016.8 |
| 20260906182306 | 78 | 117 | 4.0 | 7.0 | 0.00 | 0.88 | 0.88 | 62 | 1017.2 |
| 20260906181757 | 80 | 67 | 7.0 | 11.0 | 0.00 | 0.88 | 0.88 | 61 | 1017.2 |
| 20260906181254 | 80 | 95 | 1.0 | 2.0 | 0.00 | 0.88 | 0.88 | 61 | 1017.2 |
| 20260906180754 | 79 | 95 | 0.0 | 1.0 | 0.00 | 0.88 | 0.88 | 61 | 1016.8 |
| 20260906180249 | 78 | 120 | 3.0 | 4.0 | 0.00 | 0.88 | 0.88 | 65 | 1017.2 |
| 20260906175746 | 78 | 158 | 2.0 | 4.0 | 0.00 | 0.88 | 0.88 | 64 | 1017.2 |
| 20260906175243 | 77 | 158 | 1.0 | 3.0 | 0.00 | 0.88 | 0.88 | 62 | 1017.2 |
| 20260906174741 | 78 | 157 | 2.0 | 3.0 | 0.00 | 0.88 | 0.88 | 63 | 1017.2 |
| 20260906174241 | 78 | 96 | 3.0 | 4.0 | 0.00 | 0.88 | 0.88 | 63 | 1017.2 |
| 20260906173736 | 77 | 122 | 2.0 | 5.0 | 0.00 | 0.88 | 0.88 | 62 | 1017.2 |
| 20260906173232 | 77 | 121 | 2.0 | 3.0 | 0.00 | 0.88 | 0.88 | 62 | 1017.2 |
| 20260906172730 | 77 | 121 | 1.0 | 3.0 | 0.00 | 0.88 | 0.88 | 62 | 1017.5 |
| 20260906172226 | 77 | 109 | 6.0 | 9.0 | 0.00 | 0.88 | 0.88 | 63 | 1017.2 |
| 20260906171721 | 78 | 107 | 4.0 | 7.0 | 0.00 | 0.88 | 0.88 | 60 | 1017.2 |
| 20260906171216 | 79 | 76 | 4.0 | 9.0 | 0.00 | 0.88 | 0.88 | 60 | 1017.2 |
| 20260906170713 | 79 | 75 | 2.0 | 6.0 | 0.00 | 0.88 | 0.88 | 59 | 1016.8 |
| 20260906170212 | 79 | 79 | 1.0 | 4.0 | 0.00 | 0.88 | 0.88 | 58 | 1016.8 |
| 20260906165708 | 80 | 7 | 2.0 | 5.0 | 0.00 | 0.88 | 0.88 | 60 | 1016.8 |
| 20260906165203 | 79 | 56 | 1.0 | 4.0 | 0.00 | 0.88 | 0.88 | 63 | 1016.8 |
| 20260906164702 | 78 | 3 | 3.0 | 6.0 | 0.00 | 0.88 | 0.88 | 64 | 1016.8 |
| 20260906164158 | 77 | 4 | 4.0 | 7.0 | 0.00 | 0.88 | 0.88 | 66 | 1017.2 |
| 20260906163653 | 77 | 27 | 2.0 | 6.0 | 0.00 | 0.88 | 0.88 | 66 | 1017.2 |
| 20260906163149 | 76 | 1 | 2.0 | 4.0 | 0.00 | 0.88 | 0.88 | 68 | 1017.5 |
| 20260906162646 | 76 | 5 | 7.0 | 9.0 | 0.00 | 0.88 | 0.88 | 68 | 1017.2 |
| 20260906162146 | 76 | 6 | 3.0 | 7.0 | 0.00 | 0.88 | 0.88 | 69 | 1017.2 |
| 20260906161642 | 76 | 2 | 4.0 | 6.0 | 0.00 | 0.88 | 0.88 | 69 | 1017.5 |
| 20260906161140 | 76 | 47 | 2.0 | 7.0 | 0.00 | 0.88 | 0.88 | 69 | 1017.5 |
| 20260906160640 | 76 | 6 | 4.0 | 8.0 | 0.00 | 0.88 | 0.88 | 70 | 1017.5 |
| 20260906160138 | 75 | 327 | 3.0 | 7.0 | 0.00 | 0.88 | 0.88 | 72 | 1017.5 |
| 20260906155636 | 75 | 34 | 1.0 | 2.0 | 0.00 | 0.86 | 0.86 | 71 | 1017.8 |
| 20260906060639 | 70 | 120 | 0.0 | 0.0 | 0.00 | 0.86 | 0.86 | 99 | 1014.3 |
| 20260906060136 | 70 | 120 | 0.0 | 0.0 | 0.00 | 0.86 | 0.86 | 99 | 1014.3 |
| 20260906055631 | 70 | 120 | 0.0 | 0.0 | 0.00 | 0.86 | 0.86 | 99 | 1014.3 |
| 20260906055126 | 70 | 120 | 0.0 | 0.0 | 0.00 | 0.86 | 0.86 | 99 | 1014.7 |
| 20260906054621 | 70 | 120 | 0.0 | 0.0 | 0.00 | 0.86 | 0.86 | 99 | 1014.7 |
| 20260906054117 | 70 | 120 | 0.0 | 0.0 | 0.00 | 0.86 | 0.86 | 99 | 1014.7 |
| 20260906053613 | 70 | 120 | 0.0 | 0.0 | 0.00 | 0.86 | 0.86 | 98 | 1014.7 |
| 20260906053108 | 70 | 120 | 0.0 | 0.0 | 0.00 | 0.86 | 0.86 | 99 | 1015.0 |
| 20260906052604 | 70 | 120 | 0.0 | 0.0 | 0.00 | 0.86 | 0.86 | 99 | 1014.7 |
| 20260906052100 | 70 | 120 | 0.0 | 0.0 | 0.00 | 0.86 | 0.86 | 98 | 1014.7 |
| 20260906051556 | 70 | 120 | 0.0 | 0.0 | 0.00 | 0.86 | 0.86 | 98 | 1014.7 |
| 20260906051051 | 70 | 120 | 0.0 | 0.0 | 0.00 | 0.85 | 0.85 | 99 | 1014.7 |
| 20260906050546 | 70 | 120 | 1.0 | 2.0 | 0.00 | 0.85 | 0.85 | 99 | 1014.7 |
| 20260906050041 | 70 | 120 | 0.0 | 0.0 | 0.00 | 0.85 | 0.85 | 99 | 1015.0 |
| 20260906045539 | 70 | 120 | 0.0 | 0.0 | 0.00 | 0.84 | 0.84 | 99 | 1015.0 |
| 20260906045035 | 70 | 120 | 0.0 | 0.0 | 0.00 | 0.84 | 0.84 | 99 | 1014.7 |
| 20260906044531 | 71 | 120 | 0.0 | 0.0 | 0.00 | 0.84 | 0.84 | 99 | 1014.7 |
| 20260906044026 | 71 | 120 | 1.0 | 3.0 | 0.47 | 0.83 | 0.83 | 99 | 1014.7 |
| 20260906043521 | 71 | 128 | 3.0 | 5.0 | 0.00 | 0.82 | 0.82 | 99 | 1014.7 |
| 20260906043018 | 71 | 327 | 0.0 | 0.0 | 0.94 | 0.78 | 0.78 | 99 | 1015.0 |
| 20260906042517 | 71 | 327 | 0.0 | 0.0 | 0.00 | 0.74 | 0.74 | 99 | 1015.0 |
| 20260906042017 | 71 | 327 | 0.0 | 0.0 | 0.94 | 0.66 | 0.66 | 99 | 1014.7 |
| 20260906041513 | 71 | 327 | 0.0 | 0.0 | 1.89 | 0.53 | 0.53 | 99 | 1015.0 |
| 20260906041013 | 71 | 327 | 0.0 | 0.0 | 3.31 | 0.31 | 0.31 | 99 | 1015.0 |
| 20260906040508 | 71 | 334 | 3.0 | 6.0 | 0.94 | 0.13 | 0.13 | 99 | 1015.0 |
| 20260906040003 | 71 | 5 | 3.0 | 6.0 | 2.36 | 1.02 | 1.02 | 98 | 1014.7 |
| 20260906035458 | 71 | 14 | 0.0 | 1.0 | 0.47 | 0.97 | 0.97 | 98 | 1014.7 |
| 20260906034954 | 71 | 14 | 0.0 | 3.0 | 0.00 | 0.96 | 0.96 | 98 | 1014.3 |
| 20260906034454 | 71 | 14 | 0.0 | 4.0 | 0.47 | 0.95 | 0.95 | 98 | 1014.7 |
| 20260906033949 | 71 | 21 | 2.0 | 5.0 | 0.47 | 0.94 | 0.94 | 98 | 1014.3 |
| 20260906033444 | 71 | 61 | 2.0 | 4.0 | 1.89 | 0.78 | 0.78 | 97 | 1014.7 |
| 20260906032940 | 72 | 66 | 2.0 | 5.0 | 4.72 | 0.51 | 0.51 | 96 | 1014.7 |
| 20260906032436 | 73 | 340 | 3.0 | 5.0 | 0.94 | 0.17 | 0.17 | 96 | 1014.7 |
| 20260906031930 | 73 | 119 | 0.0 | 0.0 | 0.47 | 0.09 | 0.09 | 95 | 1014.7 |
| 20260906031426 | 74 | 88 | 4.0 | 6.0 | 0.47 | 0.03 | 0.03 | 93 | 1014.3 |
| 20260906030921 | 74 | 98 | 1.0 | 3.0 | 0.00 | 0.00 | 0.00 | 91 | 1014.3 |
| 20260906030415 | 74 | 98 | 0.0 | 0.0 | 0.00 | 0.00 | 0.00 | 91 | 1014.3 |
| 20260906025910 | 74 | 98 | 0.0 | 0.0 | 0.00 | 0.00 | 0.00 | 92 | 1014.3 |
| 20260906025404 | 73 | 98 | 0.0 | 0.0 | 0.00 | 0.00 | 0.00 | 92 | 1014.3 |
| 20260906024903 | 73 | 98 | 0.0 | 0.0 | 0.00 | 0.00 | 0.00 | 92 | 1014.3 |
| 20260906024402 | 73 | 98 | 0.0 | 0.0 | 0.00 | 0.00 | 0.00 | 93 | 1014.3 |
| 20260906023858 | 73 | 98 | 0.0 | 0.0 | 0.00 | 0.00 | 0.00 | 93 | 1014.3 |
| 20260906023354 | 73 | 98 | 0.0 | 0.0 | 0.00 | 0.00 | 0.00 | 94 | 1014.3 |
| 20260906022848 | 73 | 98 | 0.0 | 0.0 | 0.00 | 0.00 | 0.00 | 94 | 1014.3 |
| 20260906022344 | 73 | 98 | 0.0 | 0.0 | 0.00 | 0.00 | 0.00 | 95 | 1014.3 |
| 20260906021839 | 73 | 98 | 0.0 | 0.0 | 0.00 | 0.00 | 0.00 | 95 | 1014.0 |
| 20260906021338 | 73 | 98 | 0.0 | 0.0 | 0.00 | 0.00 | 0.00 | 94 | 1014.0 |
| 20260906020833 | 73 | 98 | 0.0 | 0.0 | 0.00 | 0.00 | 0.00 | 94 | 1014.0 |
| 20260906020332 | 73 | 98 | 0.0 | 0.0 | 0.00 | 0.00 | 0.00 | 93 | 1014.0 |
| 20260906015827 | 73 | 98 | 0.0 | 0.0 | 0.00 | 0.00 | 0.00 | 93 | 1014.0 |
| 20260906015326 | 73 | 98 | 0.0 | 0.0 | 0.00 | 0.00 | 0.00 | 93 | 1014.0 |
| 20260906014826 | 73 | 98 | 0.0 | 0.0 | 0.00 | 0.00 | 0.00 | 93 | 1014.0 |
| 20260906014321 | 73 | 98 | 0.0 | 0.0 | 0.00 | 0.00 | 0.00 | 93 | 1013.7 |
| 20260906013818 | 74 | 98 | 0.0 | 0.0 | 0.00 | 0.00 | 0.00 | 91 | 1013.7 |
| 20260906013313 | 74 | 98 | 0.0 | 0.0 | 0.00 | 0.00 | 0.00 | 92 | 1013.7 |
| 20260906012808 | 74 | 98 | 0.0 | 0.0 | 0.00 | 0.00 | 0.00 | 92 | 1014.0 |
| 20260906012306 | 74 | 98 | 0.0 | 0.0 | 0.00 | 0.00 | 0.00 | 92 | 1013.7 |
| 20260906011758 | 74 | 98 | 0.0 | 0.0 | 0.00 | 0.00 | 0.00 | 92 | 1013.7 |
| 20260906011257 | 75 | 98 | 0.0 | 0.0 | 0.00 | 0.00 | 0.00 | 91 | 1013.7 |
| 20260906010753 | 75 | 98 | 0.0 | 0.0 | 0.00 | 0.00 | 0.00 | 90 | 1013.7 |
| 20260906010249 | 75 | 98 | 0.0 | 0.0 | 0.00 | 0.00 | 0.00 | 89 | 1013.3 |
| 20260906005744 | 75 | 98 | 0.0 | 0.0 | 0.00 | 0.00 | 0.00 | 89 | 1013.3 |
| 20260906005244 | 75 | 98 | 0.0 | 0.0 | 0.00 | 0.00 | 0.00 | 90 | 1013.3 |
| 20260906004737 | 75 | 98 | 0.0 | 0.0 | 0.00 | 0.00 | 0.00 | 88 | 1013.3 |
| 20260906004232 | 76 | 98 | 0.0 | 0.0 | 0.00 | 0.00 | 0.00 | 87 | 1013.3 |
| 20260906003727 | 76 | 98 | 0.0 | 0.0 | 0.00 | 0.00 | 0.00 | 86 | 1013.3 |
| 20260906003223 | 76 | 98 | 0.0 | 0.0 | 0.00 | 0.00 | 0.00 | 87 | 1013.3 |
| 20260906002723 | 76 | 98 | 0.0 | 0.0 | 0.00 | 0.00 | 0.00 | 86 | 1013.3 |
| 20260906002218 | 76 | 98 | 0.0 | 0.0 | 0.00 | 0.00 | 0.00 | 85 | 1013.0 |
| 20260906001713 | 77 | 98 | 0.0 | 0.0 | 0.00 | 0.00 | 0.00 | 84 | 1013.0 |
| 20260906001213 | 77 | 98 | 0.0 | 0.0 | 0.00 | 0.00 | 0.00 | 84 | 1013.0 |
| 20260906000709 | 78 | 98 | 0.0 | 0.0 | 0.00 | 0.00 | 0.00 | 82 | 1012.6 |
| 20260906000204 | 78 | 98 | 0.0 | 0.0 | 0.00 | 0.00 | 0.00 | 82 | 1012.6 |
| 20260905235702 | 78 | 98 | 0.0 | 0.0 | 0.00 | 0.00 | 0.00 | 81 | 1013.0 |
| 20260905235158 | 78 | 142 | 0.0 | 0.0 | 0.00 | 0.00 | 0.00 | 82 | 1012.6 |
| 20260905234653 | 78 | 142 | 0.0 | 0.0 | 0.00 | 0.00 | 0.00 | 82 | 1012.6 |
| 20260905234148 | 78 | 142 | 0.0 | 0.0 | 0.00 | 0.00 | 0.00 | 82 | 1012.6 |
| 20260905233644 | 78 | 142 | 0.0 | 0.0 | 0.00 | 0.00 | 0.00 | 83 | 1012.6 |
| 20260905233142 | 78 | 142 | 0.0 | 0.0 | 0.00 | 0.00 | 0.00 | 82 | 1012.6 |
| 20260905232638 | 78 | 142 | 0.0 | 0.0 | 0.00 | 0.00 | 0.00 | 81 | 1012.6 |
| 20260905232134 | 79 | 142 | 0.0 | 0.0 | 0.00 | 0.00 | 0.00 | 80 | 1012.6 |
| 20260905231629 | 79 | 142 | 0.0 | 0.0 | 0.00 | 0.00 | 0.00 | 80 | 1013.0 |
| 20260905231125 | 79 | 142 | 0.0 | 0.0 | 0.00 | 0.00 | 0.00 | 80 | 1012.6 |
| 20260905230620 | 79 | 142 | 0.0 | 0.0 | 0.00 | 0.00 | 0.00 | 80 | 1012.6 |
| 20260905230119 | 79 | 142 | 0.0 | 2.0 | 0.00 | 0.00 | 0.00 | 80 | 1013.0 |
| 20260905225618 | 79 | 142 | 0.0 | 2.0 | 0.00 | 0.00 | 0.00 | 80 | 1012.6 |
| 20260905225113 | 79 | 142 | 0.0 | 2.0 | 0.00 | 0.00 | 0.00 | 80 | 1012.6 |
| 20260905224607 | 80 | 142 | 2.0 | 3.0 | 0.00 | 0.00 | 0.00 | 79 | 1012.6 |
| 20260905224106 | 80 | 142 | 0.0 | 2.0 | 0.00 | 0.00 | 0.00 | 78 | 1012.6 |
| 20260905223559 | 80 | 142 | 4.0 | 5.0 | 0.00 | 0.00 | 0.00 | 78 | 1012.6 |
| 20260905223054 | 80 | 142 | 2.0 | 3.0 | 0.00 | 0.00 | 0.00 | 77 | 1012.6 |
| 20260905222554 | 80 | 142 | 1.0 | 4.0 | 0.00 | 0.00 | 0.00 | 77 | 1012.6 |
| 20260905222049 | 81 | 142 | 4.0 | 6.0 | 0.00 | 0.00 | 0.00 | 76 | 1012.6 |
| 20260905221545 | 81 | 142 | 4.0 | 6.0 | 0.00 | 0.00 | 0.00 | 75 | 1012.6 |
| 20260905221041 | 82 | 141 | 4.0 | 5.0 | 0.00 | 0.00 | 0.00 | 74 | 1012.3 |